When you browse on this site, cookies collect data to enhance your experience and personalize the content and advertising you see.
Visit our Privacy Policy to learn more. By continuing to use the site, you agree to this use of cookies and data.
  • In Czech Republic
  • List of Countries
  • For 7 days
  • Water Temperature
  • Satellite Maps
  • Weather Map
  • Weather Widgets
  • user-avatar
    Login

    Hourly Weather Tyumenevka

    Today, 16 November, Friday

    Time Temperature Precipitation Wind Pressure Humidity
    00:00 -6°C° 0 mm 3 mps 764 mmHg 31%
    01:00 -6°C° 0 mm 3 mps 764 mmHg 31%
    02:00 -6°C° 0 mm 3 mps 764 mmHg 31%
    03:00 -6°C° 0 mm 2 mps 765 mmHg 32%
    04:00 -6°C° 0 mm 2 mps 765 mmHg 32%
    05:00 -7°C° 0 mm 3 mps 765 mmHg 31%
    06:00 -7°C° 0 mm 3 mps 765 mmHg 31%
    07:00 -7°C° 0 mm 3 mps 765 mmHg 29%
    08:00 -6°C° 0 mm 3 mps 765 mmHg 28%
    09:00 -6°C° 0 mm 3 mps 766 mmHg 25%
    10:00 -4°C° 0 mm 3 mps 766 mmHg 23%
    11:00 -2°C° 0 mm 3 mps 766 mmHg 21%
    12:00 -1°C° 0 mm 3 mps 766 mmHg 19%
    13:00 -1°C° 0 mm 3 mps 766 mmHg 20%
    14:00 -1°C° 0 mm 3 mps 766 mmHg 21%
    15:00 -1°C° 0 mm 2 mps 766 mmHg 24%
    16:00 -2°C° 0 mm 3 mps 766 mmHg 26%
    17:00 -4°C° 0 mm 3 mps 766 mmHg 27%
    18:00 -4°C° 0 mm 3 mps 766 mmHg 29%
    19:00 -4°C° 0 mm 3 mps 766 mmHg 29%
    20:00 -5°C° 0 mm 3 mps 766 mmHg 29%
    21:00 -5°C° 0 mm 3 mps 766 mmHg 28%
    22:00 -5°C° 0 mm 3 mps 766 mmHg 28%
    23:00 -4°C° 0 mm 2 mps 766 mmHg 28%

    Tomorrow, 17 November, Saturday

    Time Temperature Precipitation Wind Pressure Humidity
    00:00 -4°C° 0 mm 2 mps 765 mmHg 28%
    01:00 -4°C° 0 mm 2 mps 765 mmHg 27%
    02:00 -4°C° 0 mm 2 mps 765 mmHg 27%
    03:00 -5°C° 0 mm 2 mps 765 mmHg 27%
    04:00 -5°C° 0 mm 2 mps 765 mmHg 27%
    05:00 -5°C° 0 mm 2 mps 765 mmHg 26%
    06:00 -3°C° 0 mm 1 mps 764 mmHg 26%
    07:00 -3°C° 0 mm 1 mps 764 mmHg 26%
    08:00 -2°C° 0 mm 1 mps 764 mmHg 25%
    09:00 -2°C° 0 mm 1 mps 764 mmHg 24%
    10:00 -1°C° 0 mm 1 mps 763 mmHg 22%
    11:00 0°C° 0 mm 1 mps 763 mmHg 20%
    12:00 +2°C° 0 mm 1 mps 763 mmHg 18%
    13:00 +2°C° 0 mm 1 mps 762 mmHg 20%
    14:00 +1°C° 0 mm 1 mps 762 mmHg 21%
    15:00 +1°C° 0 mm 1 mps 761 mmHg 23%
    16:00 +1°C° 0 mm 1 mps 760 mmHg 24%
    17:00 0°C° 0 mm 1 mps 760 mmHg 25%
    18:00 -3°C° 0 mm 2 mps 759 mmHg 25%
    19:00 -3°C° 0 mm 2 mps 759 mmHg 25%
    20:00 -3°C° 0 mm 2 mps 758 mmHg 25%
    21:00 -3°C° 0 mm 2 mps 758 mmHg 25%
    22:00 -3°C° 0 mm 2 mps 757 mmHg 25%
    23:00 -4°C° 0 mm 3 mps 756 mmHg 25%

    Day after tomorrow, 18 November, Sunday

    Time Temperature Precipitation Wind Pressure Humidity
    00:00 -4°C° 0 mm 3 mps 755 mmHg 25%
    01:00 -4°C° 0 mm 3 mps 755 mmHg 25%
    02:00 -4°C° 0 mm 4 mps 754 mmHg 25%
    03:00 -4°C° 0 mm 4 mps 754 mmHg 24%
    04:00 -4°C° 0 mm 4 mps 753 mmHg 24%
    05:00 -4°C° 0 mm 4 mps 752 mmHg 24%
    06:00 -5°C° 0 mm 3 mps 752 mmHg 24%
    07:00 -4°C° 0 mm 4 mps 751 mmHg 24%
    08:00 -4°C° 0 mm 4 mps 751 mmHg 24%
    09:00 -4°C° 0 mm 4 mps 751 mmHg 24%
    10:00 -3°C° 0 mm 4 mps 750 mmHg 23%
    11:00 -2°C° 0 mm 4 mps 750 mmHg 23%
    12:00 -1°C° 0 mm 4 mps 750 mmHg 23%
    13:00 -1°C° 0 mm 4 mps 750 mmHg 25%
    14:00 0°C° 0 mm 3 mps 750 mmHg 27%
    15:00 0°C° 0 mm 3 mps 749 mmHg 29%
    16:00 -1°C° 0 mm 3 mps 749 mmHg 32%
    17:00 -2°C° 0 mm 3 mps 749 mmHg 36%
    18:00 -4°C° 0 mm 3 mps 749 mmHg 39%
    19:00 -3°C° 0 mm 2 mps 749 mmHg 41%
    20:00 -3°C° 0 mm 2 mps 750 mmHg 42%
    21:00 -3°C° 0 mm 2 mps 750 mmHg 44%
    22:00 -4°C° 0 mm 2 mps 750 mmHg 44%
    23:00 -4°C° 0 mm 2 mps 750 mmHg 45%

    19 November, Monday

    Time Temperature Precipitation Wind Pressure Humidity
    00:00 -4°C° 0 mm 2 mps 750 mmHg 46%
    01:00 -4°C° 0 mm 2 mps 750 mmHg 46%
    02:00 -4°C° 0 mm 2 mps 751 mmHg 47%
    03:00 -4°C° 0 mm 2 mps 751 mmHg 47%
    04:00 -4°C° 0 mm 2 mps 751 mmHg 48%
    05:00 -5°C° 0 mm 2 mps 751 mmHg 49%
    06:00 -5°C° 0 mm 2 mps 752 mmHg 50%
    07:00 -5°C° 0 mm 2 mps 752 mmHg 49%
    08:00 -4°C° 0 mm 2 mps 753 mmHg 49%
    09:00 -4°C° 0 mm 2 mps 753 mmHg 48%
    10:00 -3°C° 0 mm 2 mps 753 mmHg 45%
    11:00 -2°C° 0 mm 2 mps 754 mmHg 43%
    12:00 -1°C° 0 mm 2 mps 754 mmHg 40%
    13:00 -1°C° 0 mm 2 mps 754 mmHg 40%
    14:00 -1°C° 0 mm 2 mps 755 mmHg 41%
    15:00 -1°C° 0 mm 2 mps 755 mmHg 42%
    16:00 -2°C° 0 mm 2 mps 755 mmHg 44%
    17:00 -2°C° 0 mm 3 mps 755 mmHg 47%
    18:00 -4°C° 0 mm 3 mps 755 mmHg 50%
    19:00 -4°C° 0 mm 3 mps 756 mmHg 51%
    20:00 -4°C° 0 mm 3 mps 756 mmHg 52%
    21:00 -4°C° 0 mm 3 mps 756 mmHg 54%
    22:00 -4°C° 0 mm 3 mps 756 mmHg 52%
    23:00 -4°C° 0 mm 3 mps 757 mmHg 51%

    20 November, Tuesday

    Time Temperature Precipitation Wind Pressure Humidity
    00:00 -4°C° 0 mm 3 mps 757 mmHg 50%
    01:00 -4°C° 0 mm 3 mps 757 mmHg 48%
    02:00 -4°C° 0 mm 3 mps 757 mmHg 47%
    03:00 -4°C° 0 mm 3 mps 757 mmHg 46%
    04:00 -4°C° 0 mm 3 mps 757 mmHg 46%
    05:00 -4°C° 0 mm 3 mps 757 mmHg 46%
    06:00 -4°C° 0 mm 3 mps 757 mmHg 45%
    07:00 -4°C° 0 mm 4 mps 757 mmHg 47%
    08:00 -4°C° 0 mm 4 mps 757 mmHg 49%
    09:00 -4°C° 0 mm 4 mps 756 mmHg 51%
    10:00 -3°C° 0 mm 4 mps 756 mmHg 54%
    11:00 -2°C° 0 mm 4 mps 756 mmHg 56%
    12:00 -2°C° 0 mm 4 mps 756 mmHg 59%
    13:00 -1°C° 0 mm 4 mps 756 mmHg 59%
    14:00 -1°C° 0 mm 4 mps 755 mmHg 58%
    15:00 -1°C° 0 mm 4 mps 755 mmHg 58%
    16:00 -2°C° 0 mm 4 mps 755 mmHg 58%
    17:00 -2°C° 0 mm 4 mps 754 mmHg 58%
    18:00 -3°C° 0 mm 4 mps 754 mmHg 58%
    19:00 -3°C° 0.1 mm 4 mps 754 mmHg 62%
    20:00 -3°C° 0.1 mm 4 mps 754 mmHg 66%
    21:00 -4°C° 0.1 mm 4 mps 753 mmHg 70%
    22:00 -4°C° 0.1 mm 4 mps 753 mmHg 75%
    23:00 -4°C° 0.1 mm 4 mps 753 mmHg 80%

    21 November, Wednesday

    Time Temperature Precipitation Wind Pressure Humidity
    00:00 -4°C° 0.1 mm 4 mps 753 mmHg 85%
    01:00 -4°C° 0 mm 3 mps 753 mmHg 85%
    02:00 -4°C° 0 mm 3 mps 752 mmHg 86%
    03:00 -4°C° 0 mm 3 mps 752 mmHg 87%
    04:00 -4°C° 0 mm 3 mps 752 mmHg 87%
    05:00 -4°C° 0 mm 3 mps 752 mmHg 88%
    06:00 -4°C° 0 mm 3 mps 752 mmHg 88%
    07:00 -4°C° 0 mm 3 mps 752 mmHg 88%
    08:00 -4°C° 0 mm 3 mps 752 mmHg 88%
    09:00 -4°C° 0 mm 3 mps 752 mmHg 88%
    10:00 -2°C° 0 mm 3 mps 752 mmHg 86%
    11:00 -2°C° 0 mm 3 mps 752 mmHg 84%
    12:00 -1°C° 0 mm 3 mps 752 mmHg 82%
    13:00 -1°C° 0 mm 3 mps 752 mmHg 82%
    14:00 -1°C° 0 mm 3 mps 751 mmHg 82%
    15:00 -1°C° 0 mm 3 mps 751 mmHg 82%
    16:00 -1°C° 0 mm 3 mps 751 mmHg 84%
    17:00 -2°C° 0 mm 3 mps 751 mmHg 85%
    18:00 -2°C° 0 mm 3 mps 751 mmHg 87%
    19:00 -2°C° 0 mm 3 mps 751 mmHg 86%
    20:00 -2°C° 0 mm 3 mps 751 mmHg 86%
    21:00 -2°C° 0 mm 3 mps 751 mmHg 86%
    22:00 -2°C° 0 mm 3 mps 751 mmHg 85%
    23:00 -2°C° 0 mm 3 mps 751 mmHg 84%
    Show more